User: anonymous   Login
Location: Kopernik Observatory
(42.0014°N, 76.0372°W)
Time: 20:29:55
(UTC-04:00)
Language:

CENTAUR R/B - Orbit

View from above orbital plane
View from above orbital plane
View from above satellite
View from above satellite

Ground track
Ground track

The orbit data is extracted from the following two-line orbital elements,

1 26906U 01040B   17202.91149320 0.00000000  00000-0  00000-0 0    02
2 26906  63.4600 244.3696 0359000 341.7241  18.2758 13.44010868    03
Epoch (UTC): 21 July 2017 21:52:33
Eccentricity: 0.0359000
inclination: 63.4600°
perigee height: 826 km
apogee height: 1362 km
right ascension of ascending node: 244.3696°
argument of perigee: 341.7241°
revolutions per day: 13.44010868
mean anomaly at epoch: 18.2758°
orbit number at epoch: 0

The dashed part of the orbit path shows where the satellite is in the earth's shadow,  

DLR